Weather History for KLFT - March, 2013

Change the Weather History Date:

Saturday, March 30, 2013

  Actual Average Record
Temperature  
Mean Temperature 67 °F 65 °F  
Max Temperature 76 °F 76 °F 90 °F (1946)
Min Temperature 57 °F 55 °F 34 °F (1987)
Degree Days  
Heating Degree Days 0 3  
Month to date heating degree days 235 147  
Since 1 July heating degree days 1245 1377  
Cooling Degree Days 2 3  
Month to date cooling degree days 26 60  
Year to date cooling degree days 57 92  
Growing Degree Days 15 (Base 50)    
Moisture  
Dew Point 57 °F    
Average Humidity 73    
Maximum Humidity 93    
Minimum Humidity 53    
Precipitation  
Precipitation 0.00 in 0.12 in 2.39 in (1918)
Month to date precipitation 1.90 3.68  
Year to date precipitation 19.77 13.80  
Snow  
Snow 0.00 in 0.00 in 0.00 in ()
Month to date snowfall 0.0 0.0  
Since 1 July snowfall 0.0 T  
Snow Depth 0.00 in    
Sea Level Pressure  
Sea Level Pressure 30.12 in    
Wind  
Wind Speed 7 mph (South)    
Max Wind Speed 20 mph    
Max Gust Speed 26 mph    
Visibility 9 miles    
Events      
T = Trace of Precipitation, MM = Missing Value Source: NWS Daily Summary

Daily Weather History Graph

Daily Weather History Graph

Search for Another Location

Airport or City:

Trip Planner

Search our weather history database for the weather conditions in past years. The results will help you decide how hot, cold, wet, or windy it might be!

Date:

Astronomy

Mar. 30, 2013 Rise Set
Actual Time 6:59 AM CDT 7:25 PM CDT
Civil Twilight 6:35 AM CDT 7:49 PM CDT
Nautical Twilight 6:07 AM CDT 8:18 PM CDT
Astronomical Twilight 5:38 AM CDT 8:46 PM CDT
Moon 11:15 PM CDT (3/30) 9:10 AM CDT (3/30)
Length of Visible Light 13h 14m
Length of Day
12h 26m
Waning Gibbous, 86% of the Moon is Illuminated
Mar 30
Waning Gibbous
Apr 2
Last Quarter
Apr 10
New
Apr 18
First Quarter
Apr 25
Full

Hourly Weather History & Observations

Time (CDT) Temp. Dew Point Humidity Pressure Visibility Wind Dir Wind Speed Gust Speed Precip Events Conditions
12:53 AM 59.0 °F 55.0 °F 87% 30.19 in 10.0 mi South 4.6 mph - N/A   Clear
1:53 AM 57.9 °F 55.0 °F 90% 30.18 in 9.0 mi South 3.5 mph - N/A   Clear
2:53 AM 57.0 °F 55.0 °F 93% 30.16 in 8.0 mi Calm Calm - N/A   Clear
3:53 AM 57.9 °F 55.9 °F 93% 30.15 in 5.0 mi South 3.5 mph - N/A   Clear
4:53 AM 57.9 °F 55.9 °F 93% 30.13 in 5.0 mi SSE 4.6 mph - N/A   Clear
5:53 AM 59.0 °F 55.9 °F 90% 30.12 in 8.0 mi SSE 5.8 mph - N/A   Clear
6:53 AM 60.1 °F 57.0 °F 90% 30.14 in 8.0 mi SSE 4.6 mph - N/A   Clear
7:53 AM 60.1 °F 57.0 °F 90% 30.14 in 7.0 mi South 4.6 mph - N/A   Clear
8:53 AM 63.0 °F 57.9 °F 84% 30.18 in 9.0 mi SSW 4.6 mph - N/A   Clear
9:53 AM 66.0 °F 59.0 °F 78% 30.17 in 10.0 mi South 6.9 mph - N/A   Partly Cloudy
10:53 AM 69.1 °F 59.0 °F 70% 30.18 in 10.0 mi South 8.1 mph - N/A   Mostly Cloudy
11:37 AM 71.6 °F 57.2 °F 60% 30.17 in 10.0 mi SSW 11.5 mph - N/A   Overcast
11:48 AM 71.6 °F 57.2 °F 60% 30.16 in 10.0 mi SSW 11.5 mph - N/A   Mostly Cloudy
11:53 AM 72.0 °F 57.9 °F 61% 30.16 in 10.0 mi South 12.7 mph - N/A   Mostly Cloudy
12:08 PM 73.4 °F 57.2 °F 57% 30.15 in 10.0 mi South 12.7 mph - N/A   Scattered Clouds
12:53 PM 71.1 °F 57.0 °F 61% 30.12 in 10.0 mi South 11.5 mph - N/A   Mostly Cloudy
1:53 PM 73.0 °F 55.0 °F 53% 30.10 in 10.0 mi South 11.5 mph 20.7 mph N/A   Partly Cloudy
2:53 PM 73.0 °F 55.9 °F 55% 30.06 in 10.0 mi South 13.8 mph 20.7 mph N/A   Partly Cloudy
3:53 PM 72.0 °F 55.9 °F 57% 30.06 in 10.0 mi South 10.4 mph - N/A   Mostly Cloudy
4:53 PM 72.0 °F 55.9 °F 57% 30.06 in 10.0 mi South 11.5 mph - N/A   Mostly Cloudy
5:53 PM 70.0 °F 57.0 °F 63% 30.06 in 10.0 mi SSW 13.8 mph - N/A   Overcast
6:53 PM 69.1 °F 57.9 °F 68% 30.05 in 10.0 mi South 10.4 mph - N/A   Overcast
7:53 PM 68.0 °F 57.9 °F 70% 30.04 in 10.0 mi South 8.1 mph - N/A   Overcast
8:53 PM 64.9 °F 59.0 °F 81% 30.05 in 10.0 mi SSW 8.1 mph - N/A   Clear
9:53 PM 64.0 °F 60.1 °F 87% 30.05 in 10.0 mi South 3.5 mph - N/A   Clear
10:53 PM 63.0 °F 60.1 °F 90% 30.06 in 10.0 mi South 4.6 mph - N/A   Clear
11:53 PM 62.1 °F 60.1 °F 93% 30.05 in 8.0 mi South 3.5 mph - N/A   Clear